STARLINK-36757, 67728

Orbit data source: Space-Track

STARLINK-36757, 67728 is a payload satellite owned by SpaceX/Seattle (US) in SSO that was launched on Wed, 11 Feb 2026 UTC via an FALCON 9 launch vehicle from the Air Force Western Test Range (AFWTR). Payload-class satellites include a variety of spacecraft equipped with specific instruments for various scientific and technological missions. These include communications satellites like Starlink; space stations such as the ISS; scientific satellites like the Hubble; Earth observation satellites from companies like Planet Labs, Umbra, and HawkEye 360; GPS; miniature CubeSats for education and research; and military/defense satellites.

Loading next visibility...
Identifier
67728, 2026-026H
Orbit
SSO
Country
Flag of USUS
Related business
Manufacturer
SpaceX/Seattle
Mission
Operational Commercial Communications
Bus & Motor
STARLINK V2MO, Unknown motor
Mass
575 kg wet, ~530 kg dry
Launch date (UTC)
2026-02-11 (3 months ago)
Launch vehicle
FALCON 9
Launch site
Air Force Western Test Range (AFWTR)
Object type
Payload
Rocket body
Debris
Shape & HBR
Box + 2 Pan, 17.7 m
Radar Cross Section
36.964 m²

Expand to show TLE details & history
Last TLE update: 8 hours ago

TLE from 8 hours ago
0 STARLINK-36757
1 67728U 26026H   26130.15055852 -.00003197  00000-0 -96868-4 0  9992
2 67728  97.2845 183.8673 0001382 101.5984 258.5414 15.33403604 13546
Epoch: 2026-05-10T03:36Z
TLE epoch observation values (Epoch: 2026-05-10T03:36:48.256Z)
Latitude
0.00001°
Longitude
-98.29153°
Altitude
468.966 km
Speed
7.632 km/s
True Right ascension
12h 15m 28s
True Declination
0° 00' 00"
Sunlit
Object was in full shadow at epoch
Visualization orbit readout
Latitude
Unknown
Longitude
Unknown
Altitude
Unknown
Speed
Unknown
Apparent Right ascension
Unknown
Apparent Declination
Unknown
Sunlit
N/A
Visualization observer readout
Local Sidereal Time
19:48:24
Azimuth
Unknown
Elevation
Unknown
Doppler factor
Unknown
Orbital elements
Apogee altitude
463.555 km
Perigee altitude
461.664 km
Semi-major axis
6,840.746 km
Eccentricity
0.00014
Inclination
97.2845°
RAAN
183.8673°
Arg. of periapsis
101.5984°
True anomaly
258.52588°
Mean anomaly
258.5414°
Eccentric anomaly
258.53364°
Mean motion
3.83608 °/min
Orbital period
93.85 mins
BSTAR
-0.000096868
Loading maneuver chart data...
Computing Atmospheric mass density...
Loading historical data...
Loading historical data...
Loading historical data...
Loading historical data...
Loading historical data...
Loading historical data...
Loading historical data...

Documentation

Showing up to 5 results
|